Terminal Aerodrome Forecast
Issued by NWS Mt. Holly, NJ

Home | Current Version | Previous Version | Text Only | Print | Product List | Glossary On
Versions: 1 2 3 4 5 6 7 8 9 10 11 12 13 14 15 16 17 18 19 20 21 22 23 24 25 26 27 28 29 30 31 32 33 34 35 36 37 38 39 40 41 42 43 44 45 46 47
000
FTAK31 PANC 221140
TAFABE
TAF
PABE 221140Z 2212/2312 33007KT P6SM FEW080 SCT200
     FM222000 28007KT P6SM SCT020 SCT050 BKN250=

USA.gov is the U.S. government's official web portal to all federal, state and local government web resources and services.